Location: Unspecified
(0.0000°N, 0.0000°E)
Time: 07:52:47
(UTC+00:00)

Transit 4A - Pass Details

Date: 08 October 2023
Orbit: 864 x 979 km, 66.8° (Epoch: 05 December)

Event Time Altitude Azimuth Distance (km) Brightness Sun altitude
Rises 07:50:35 0° 202° (SSW) 3,547 10.8 30.6°
Reaches altitude 10° 07:53:04 10° 203° (SSW) 2,620 10.2 31.2°
Maximum altitude 07:59:11 80° 289° (WNW) 959 8.4 32.7°
Drops below altitude 10° 08:05:28 10° 16° (NNE) 2,685 10.5 34.2°
Sets 08:08:02 0° 17° (NNE) 3,641 11.1 34.9°
